Terminal Aerodrome Forecast
Issued by NWS

Home | Current Version | Previous Version | Text Only | Print | Product List | Glossary On
Versions: 1 2 3 4 5 6 7 8 9 10 11 12 13
000
FTPA31 PHFO 192335
TAFHJR
TAF
PHJR 192335Z 2000/2024 11008KT P6SM SCT040
     FM200400 VRB03KT P6SM FEW040
     FM202100 09008KT P6SM FEW040
     FM202300 35009KT P6SM SCT040=

USA.gov is the U.S. government's official web portal to all federal, state and local government web resources and services.